Regional Weather Roundup
Issued by NWS

Home | Current Version | Previous Version | Text Only | Print | Product List | Glossary On
Versions: 1 2 3 4 5 6 7 8 9 10 11 12 13 14 15 16 17 18 19 20 21 22 23 24 25 26 27
000
ASUS44 KLIX 232012
RWRLA
LOUISIANA WEATHER ROUNDUP
NATIONAL WEATHER SERVICE NEW ORLEANS LA
300 PM CDT SUN APR 23 2017

NOTE: "FAIR" INDICATES FEW OR NO CLOUDS BELOW 12,000 FEET WITH NO
      SIGNIFICANT WEATHER AND/OR OBSTRUCTIONS TO VISIBILITY.
      SKY/WX - SKY CONDITION AND SIGNIFICANT WEATHER.
      TMP - AIR TEMPERATURE.    DP   - DEWPOINT TEMPERATURE.
      RH  - RELATIVE HUMIDITY.  PRES - PRESSURE.
      HX  - HEAT INDEX.         WCI  - WIND CHILL INDEX.

*  THESE STATIONS ARE NOT NWS OR FAA STATIONS AND ARE NOT UNDER
   NWS QUALITY CONTROL.

LAZ040-048-061>063-065-066-069-232100-
SOUTHEAST LOUISIANA

CITY           SKY/WX    TMP DP  RH WIND       PRES   REMARKS
N.O. INTL ARPT PTSUNNY   67  53  61 NW13G18   29.89F
N.O. LAKEFRONT MOSUNNY   69  55  60 NW15      29.89F
N.O. DOWNTOWN*   N/A     67  52  58 NW9G21      N/A
RESERVE*       NOT AVBL
SLIDELL        PTSUNNY   68  52  56 NW8       29.88F
BATON ROUGE    PTSUNNY   67  49  52 NW16      29.94S
BOOTHVILLE     MOSUNNY   70  59  68 NW13      29.88F
BELLE CHASSE   PTSUNNY   66  56  70 N7        29.88F
BOGALUSA*      NOT AVBL
GALLIANO*      MOCLDY    70  53  54 N9        29.90S
NEW ROADS*     CLOUDY    64  49  58 N13G20    29.96S
GONZALES*      CLOUDY    65  51  60 N13       29.91S
HAMMOND*       CLOUDY    66  46  48 NW10G20   29.91R
HOUMA*         CLOUDY    66  54  63 N12       29.91F
PORT FOURCHON* PTCLDY    68  55  64 NW8G17    29.90F

$$

LAZ041-044-053-054-232100-
SOUTHWEST LOUISIANA

CITY           SKY/WX    TMP DP  RH WIND       PRES   REMARKS
LAKE CHARLES   MOSUNNY   70  49  47 N18G26    29.98S
LAFAYETTE      CLOUDY    69  49  48 N16       29.96F
PATTERSON      MOSUNNY   67  52  58 N9G17     29.93F
SALT POINT       N/A     68  51  54 N9G16     29.92F
NEW IBERIA     CLOUDY    66  47  50 N14G22    29.96S
CHENAULT AIRPK PTSUNNY   64  48  55 NW15G22   29.99S

$$

LAZ027-028-232100-
CENTRAL LOUISIANA

CITY           SKY/WX    TMP DP  RH WIND       PRES   REMARKS
FORT POLK      CLOUDY    61  47  62 N10       30.00F
ALEXANDRIA INT CLOUDY    62  49  62 N14       29.98F
ALEXANDRIA     CLOUDY    61  49  64 NW9       29.99S

$$

LAZ001-002-232100-
NORTHWEST LOUISIANA

CITY           SKY/WX    TMP DP  RH WIND       PRES   REMARKS
SHREVEPORT     MOSUNNY   70  47  43 N12       30.00F
BARKSDALE AFB  MOSUNNY   69  48  46 N12G20    30.00F
DTN SHREVEPORT PTSUNNY   71  47  42 N14       30.01F

$$

LAZ014-016-232100-
NORTHEAST LOUISIANA

CITY           SKY/WX    TMP DP  RH WIND       PRES   REMARKS
MONROE         PTSUNNY   66  48  52 VRB6G17   29.98F
TALLULAH       CLOUDY    62  47  57 VRB7      29.96F

$$





USA.gov is the U.S. government's official web portal to all federal, state and local government web resources and services.